Time,TemperatureF,DewpointF,PressureIn,WindDirection,WindDirectionDegrees,WindSpeedMPH,WindSpeedGustMPH,Humidity,HourlyPrecipIn,Conditions,Clouds,dailyrainin,SoftwareType,DateUTC
2013-08-22 00:11:00,83.2,78.0,30.05,SE,130,6.0,-999.0,83,-99.99,,,0.00,weatherlink.com 1.10,2013-08-22 04:11:00,
2013-08-22 00:26:00,83.2,78.0,30.05,ESE,103,5.0,-999.0,83,-99.99,,,0.00,weatherlink.com 1.10,2013-08-22 04:26:00,
2013-08-22 00:41:00,83.2,78.0,30.05,South,180,2.0,-999.0,83,-99.99,,,0.00,weatherlink.com 1.10,2013-08-22 04:41:00,
2013-08-22 00:56:00,83.0,78.0,30.05,SSE,163,0.0,-999.0,84,-99.99,,,0.00,weatherlink.com 1.10,2013-08-22 04:56:00,
2013-08-22 01:11:00,80.1,75.0,30.05,SSW,213,0.0,-999.0,84,-99.99,,,0.01,weatherlink.com 1.10,2013-08-22 05:11:00,
2013-08-22 01:26:00,77.9,74.0,30.05,SSW,207,0.0,-999.0,88,-99.99,,,0.01,weatherlink.com 1.10,2013-08-22 05:26:00,
2013-08-22 01:41:00,76.9,74.0,30.04,SW,229,0.0,-999.0,90,-99.99,,,0.01,weatherlink.com 1.10,2013-08-22 05:41:00,
2013-08-22 01:56:00,76.3,73.0,30.04,SSE,166,0.0,-999.0,90,-99.99,,,0.01,weatherlink.com 1.10,2013-08-22 05:56:00,
2013-08-22 02:11:00,76.3,74.0,30.03,SE,141,0.0,-999.0,91,-99.99,,,0.01,weatherlink.com 1.10,2013-08-22 06:11:00,
2013-08-22 02:26:00,76.8,74.0,30.03,SSE,148,1.0,-999.0,91,-99.99,,,0.02,weatherlink.com 1.10,2013-08-22 06:26:00,
2013-08-22 02:41:00,78.0,75.0,30.02,SE,129,0.0,-999.0,90,-99.99,,,0.02,weatherlink.com 1.10,2013-08-22 06:41:00,
2013-08-22 02:56:00,78.3,75.0,30.02,ESE,115,0.0,-999.0,90,-99.99,,,0.02,weatherlink.com 1.10,2013-08-22 06:56:00,
2013-08-22 03:11:00,78.2,75.0,30.01,ESE,115,0.0,-999.0,91,-99.99,,,0.02,weatherlink.com 1.10,2013-08-22 07:11:00,
2013-08-22 03:26:00,78.3,76.0,30.01,ESE,114,0.0,-999.0,92,-99.99,,,0.02,weatherlink.com 1.10,2013-08-22 07:26:00,
2013-08-22 03:41:00,78.5,76.0,30.02,ESE,119,0.0,-999.0,92,-99.99,,,0.02,weatherlink.com 1.10,2013-08-22 07:41:00,
2013-08-22 03:56:00,79.2,77.0,30.01,SE,128,0.0,-999.0,93,-99.99,,,0.02,weatherlink.com 1.10,2013-08-22 07:56:00,
2013-08-22 04:11:00,79.6,77.0,30.01,SE,133,0.0,-999.0,91,-99.99,,,0.02,weatherlink.com 1.10,2013-08-22 08:11:00,
2013-08-22 04:26:00,80.1,77.0,30.00,SE,126,0.0,-999.0,90,-99.99,,,0.02,weatherlink.com 1.10,2013-08-22 08:26:00,
2013-08-22 04:41:00,80.3,77.0,30.00,ESE,110,0.0,-999.0,90,-99.99,,,0.02,weatherlink.com 1.10,2013-08-22 08:41:00,
2013-08-22 04:56:00,80.5,78.0,30.00,ESE,102,1.0,-999.0,91,-99.99,,,0.02,weatherlink.com 1.10,2013-08-22 08:56:00,
2013-08-22 05:11:00,80.7,77.0,29.99,SE,140,0.0,-999.0,88,-99.99,,,0.02,weatherlink.com 1.10,2013-08-22 09:11:00,
2013-08-22 05:26:00,80.9,77.0,29.99,ESE,114,0.0,-999.0,87,-99.99,,,0.02,weatherlink.com 1.10,2013-08-22 09:26:00,
2013-08-22 05:41:00,80.8,77.0,30.00,SE,142,0.0,-999.0,88,-99.99,,,0.02,weatherlink.com 1.10,2013-08-22 09:41:00,
2013-08-22 05:56:00,80.8,77.0,30.00,South,171,0.0,-999.0,88,-99.99,,,0.02,weatherlink.com 1.10,2013-08-22 09:56:00,
2013-08-22 06:11:00,81.1,77.0,30.00,SE,138,0.0,-999.0,88,-99.99,,,0.02,weatherlink.com 1.10,2013-08-22 10:11:00,
2013-08-22 06:26:00,81.1,77.0,30.00,SE,145,0.0,-999.0,88,-99.99,,,0.02,weatherlink.com 1.10,2013-08-22 10:26:00,
2013-08-22 06:41:00,81.0,78.0,30.01,SE,124,0.0,-999.0,89,-99.99,,,0.02,weatherlink.com 1.10,2013-08-22 10:41:00,
2013-08-22 08:42:00,85.6,79.0,30.03,East,95,5.0,-999.0,81,-99.99,,,0.02,weatherlink.com 1.10,2013-08-22 12:42:00,
2013-08-22 08:57:00,85.8,79.0,30.03,SSE,166,2.0,-999.0,80,-99.99,,,0.02,weatherlink.com 1.10,2013-08-22 12:57:00,
2013-08-22 09:12:00,86.5,79.0,30.04,ESE,111,4.0,-999.0,78,-99.99,,,0.02,weatherlink.com 1.10,2013-08-22 13:12:00,
2013-08-22 09:27:00,86.4,79.0,30.04,SSW,196,3.0,-999.0,78,-99.99,,,0.02,weatherlink.com 1.10,2013-08-22 13:27:00,
2013-08-22 09:42:00,87.2,79.0,30.04,SSW,192,5.0,-999.0,76,-99.99,,,0.02,weatherlink.com 1.10,2013-08-22 13:42:00,
2013-08-22 09:57:00,86.7,79.0,30.04,NNE,28,4.0,-999.0,78,-99.99,,,0.02,weatherlink.com 1.10,2013-08-22 13:57:00,
2013-08-22 10:12:00,86.4,78.0,30.04,SE,126,2.0,-999.0,77,-99.99,,,0.02,weatherlink.com 1.10,2013-08-22 14:12:00,
2013-08-22 10:27:00,87.2,79.0,30.04,ESE,122,4.0,-999.0,76,-99.99,,,0.02,weatherlink.com 1.10,2013-08-22 14:27:00,
2013-08-22 10:42:00,87.5,79.0,30.04,SSE,161,1.0,-999.0,75,-99.99,,,0.02,weatherlink.com 1.10,2013-08-22 14:42:00,
2013-08-22 10:57:00,88.6,79.0,30.04,SE,131,11.0,-999.0,72,-99.99,,,0.02,weatherlink.com 1.10,2013-08-22 14:57:00,
2013-08-22 11:12:00,88.5,79.0,30.04,SSE,150,6.0,-999.0,73,-99.99,,,0.02,weatherlink.com 1.10,2013-08-22 15:12:00,
2013-08-22 11:27:00,89.0,78.0,30.04,SSE,163,6.0,-999.0,69,-99.99,,,0.02,weatherlink.com 1.10,2013-08-22 15:27:00,
2013-08-22 11:42:00,89.1,78.0,30.04,SE,130,5.0,-999.0,70,-99.99,,,0.02,weatherlink.com 1.10,2013-08-22 15:42:00,
2013-08-22 11:57:00,89.6,78.0,30.04,SE,128,6.0,-999.0,69,-99.99,,,0.02,weatherlink.com 1.10,2013-08-22 15:57:00,
2013-08-22 12:12:00,90.1,77.0,30.04,SSE,155,2.0,-999.0,66,-99.99,,,0.02,weatherlink.com 1.10,2013-08-22 16:12:00,
2013-08-22 12:27:00,89.7,78.0,30.04,SSE,159,1.0,-999.0,69,-99.99,,,0.02,weatherlink.com 1.10,2013-08-22 16:27:00,
2013-08-22 12:42:00,90.5,79.0,30.03,NE,49,2.0,-999.0,68,-99.99,,,0.02,weatherlink.com 1.10,2013-08-22 16:42:00,
2013-08-22 12:57:00,91.2,78.0,30.03,NE,55,5.0,-999.0,66,-99.99,,,0.02,weatherlink.com 1.10,2013-08-22 16:57:00,
2013-08-22 13:12:00,91.6,79.0,30.02,SE,132,7.0,-999.0,66,-99.99,,,0.02,weatherlink.com 1.10,2013-08-22 17:12:00,
2013-08-22 13:27:00,90.9,78.0,30.02,SSE,158,4.0,-999.0,66,-99.99,,,0.02,weatherlink.com 1.10,2013-08-22 17:27:00,
2013-08-22 13:42:00,90.8,78.0,30.01,ESE,119,7.0,-999.0,67,-99.99,,,0.02,weatherlink.com 1.10,2013-08-22 17:42:00,
2013-08-22 13:57:00,90.9,79.0,30.01,SE,128,1.0,-999.0,68,-99.99,,,0.02,weatherlink.com 1.10,2013-08-22 17:57:00,
2013-08-22 14:12:00,90.6,78.0,30.01,SE,134,8.0,-999.0,67,-99.99,,,0.02,weatherlink.com 1.10,2013-08-22 18:12:00,
2013-08-22 14:27:00,91.1,80.0,30.00,East,88,8.0,-999.0,69,-99.99,,,0.02,weatherlink.com 1.10,2013-08-22 18:27:00,
2013-08-22 14:42:00,90.0,78.0,30.00,ENE,60,4.0,-999.0,68,-99.99,,,0.02,weatherlink.com 1.10,2013-08-22 18:42:00,
2013-08-22 14:57:00,90.0,79.0,29.99,East,95,1.0,-999.0,70,-99.99,,,0.02,weatherlink.com 1.10,2013-08-22 18:57:00,
2013-08-22 15:12:00,91.3,79.0,29.99,SE,142,2.0,-999.0,68,-99.99,,,0.02,weatherlink.com 1.10,2013-08-22 19:12:00,
2013-08-22 15:27:00,90.0,79.0,29.98,East,85,2.0,-999.0,69,-99.99,,,0.02,weatherlink.com 1.10,2013-08-22 19:27:00,
2013-08-22 15:42:00,90.9,79.0,29.97,SE,125,8.0,-999.0,67,-99.99,,,0.02,weatherlink.com 1.10,2013-08-22 19:42:00,
2013-08-22 15:57:00,90.3,78.0,29.97,East,80,2.0,-999.0,68,-99.99,,,0.02,weatherlink.com 1.10,2013-08-22 19:57:00,
2013-08-22 16:12:00,90.5,79.0,29.96,SE,129,5.0,-999.0,68,-99.99,,,0.02,weatherlink.com 1.10,2013-08-22 20:12:00,
2013-08-22 16:27:00,90.0,79.0,29.97,South,182,3.0,-999.0,69,-99.99,,,0.02,weatherlink.com 1.10,2013-08-22 20:27:00,
2013-08-22 16:42:00,89.7,77.0,29.97,SE,130,6.0,-999.0,67,-99.99,,,0.02,weatherlink.com 1.10,2013-08-22 20:42:00,
2013-08-22 16:57:00,89.8,77.0,29.97,ESE,121,4.0,-999.0,66,-99.99,,,0.02,weatherlink.com 1.10,2013-08-22 20:57:00,
2013-08-22 17:12:00,90.2,78.0,29.97,ENE,75,2.0,-999.0,67,-99.99,,,0.02,weatherlink.com 1.10,2013-08-22 21:12:00,
2013-08-22 17:27:00,89.6,78.0,29.96,ESE,109,6.0,-999.0,68,-99.99,,,0.02,weatherlink.com 1.10,2013-08-22 21:27:00,
2013-08-22 17:42:00,89.2,77.0,29.95,ESE,108,2.0,-999.0,68,-99.99,,,0.02,weatherlink.com 1.10,2013-08-22 21:42:00,
2013-08-22 17:57:00,89.3,78.0,29.96,South,171,6.0,-999.0,69,-99.99,,,0.02,weatherlink.com 1.10,2013-08-22 21:57:00,
2013-08-22 18:12:00,88.2,78.0,29.95,SSE,168,5.0,-999.0,71,-99.99,,,0.02,weatherlink.com 1.10,2013-08-22 22:12:00,
2013-08-22 18:27:00,87.1,78.0,29.95,ENE,62,2.0,-999.0,73,-99.99,,,0.02,weatherlink.com 1.10,2013-08-22 22:27:00,
2013-08-22 18:42:00,86.1,77.0,29.95,East,86,7.0,-999.0,74,-99.99,,,0.02,weatherlink.com 1.10,2013-08-22 22:42:00,
2013-08-22 18:57:00,85.6,77.0,29.96,ESE,112,1.0,-999.0,75,-99.99,,,0.02,weatherlink.com 1.10,2013-08-22 22:57:00,
2013-08-22 19:12:00,85.3,77.0,29.95,SE,137,0.0,-999.0,77,-99.99,,,0.02,weatherlink.com 1.10,2013-08-22 23:12:00,
2013-08-22 19:27:00,85.0,78.0,29.96,ESE,110,4.0,-999.0,79,-99.99,,,0.02,weatherlink.com 1.10,2013-08-22 23:27:00,
2013-08-22 19:42:00,84.5,78.0,29.96,SSE,150,0.0,-999.0,80,-99.99,,,0.02,weatherlink.com 1.10,2013-08-22 23:42:00,
2013-08-22 19:57:00,84.1,77.0,29.97,SE,128,4.0,-999.0,80,-99.99,,,0.02,weatherlink.com 1.10,2013-08-22 23:57:00,
2013-08-22 20:12:00,83.7,77.0,29.98,East,92,2.0,-999.0,81,-99.99,,,0.02,weatherlink.com 1.10,2013-08-23 00:12:00,
2013-08-22 20:27:00,83.6,77.0,29.98,SSE,156,1.0,-999.0,80,-99.99,,,0.02,weatherlink.com 1.10,2013-08-23 00:27:00,
2013-08-22 20:42:00,83.3,77.0,29.99,ESE,109,0.0,-999.0,81,-99.99,,,0.02,weatherlink.com 1.10,2013-08-23 00:42:00,
2013-08-22 20:57:00,83.2,77.0,29.99,SE,138,0.0,-999.0,81,-99.99,,,0.02,weatherlink.com 1.10,2013-08-23 00:57:00,
2013-08-22 21:12:00,83.2,77.0,29.99,SE,124,1.0,-999.0,82,-99.99,,,0.02,weatherlink.com 1.10,2013-08-23 01:12:00,
2013-08-22 21:28:00,83.0,77.0,29.99,SSE,148,0.0,-999.0,82,-99.99,,,0.02,weatherlink.com 1.10,2013-08-23 01:28:00,
2013-08-22 21:43:00,82.7,77.0,29.99,East,98,0.0,-999.0,82,-99.99,,,0.02,weatherlink.com 1.10,2013-08-23 01:43:00,
2013-08-22 21:58:00,82.7,76.0,29.99,SSE,161,0.0,-999.0,81,-99.99,,,0.02,weatherlink.com 1.10,2013-08-23 01:58:00,
2013-08-22 22:13:00,82.7,76.0,29.99,SSE,154,1.0,-999.0,81,-99.99,,,0.02,weatherlink.com 1.10,2013-08-23 02:13:00,
2013-08-22 22:28:00,82.7,77.0,30.00,East,98,1.0,-999.0,82,-99.99,,,0.02,weatherlink.com 1.10,2013-08-23 02:28:00,
2013-08-22 22:43:00,82.5,77.0,30.01,SSE,155,1.0,-999.0,83,-99.99,,,0.02,weatherlink.com 1.10,2013-08-23 02:43:00,
2013-08-22 22:58:00,82.5,77.0,30.01,SE,130,0.0,-999.0,83,-99.99,,,0.02,weatherlink.com 1.10,2013-08-23 02:58:00,
2013-08-22 23:13:00,82.5,77.0,30.01,ESE,108,1.0,-999.0,83,-99.99,,,0.02,weatherlink.com 1.10,2013-08-23 03:13:00,
2013-08-22 23:28:00,82.4,77.0,30.00,SE,134,0.0,-999.0,83,-99.99,,,0.02,weatherlink.com 1.10,2013-08-23 03:28:00,
2013-08-22 23:43:00,82.4,77.0,30.00,SE,130,0.0,-999.0,83,-99.99,,,0.02,weatherlink.com 1.10,2013-08-23 03:43:00,
2013-08-22 23:58:00,82.0,77.0,30.00,ESE,105,0.0,-999.0,84,-99.99,,,0.02,weatherlink.com 1.10,2013-08-23 03:58:00,